Other Surface Observations
Issued by NWS Tucson, AZ

Home | Current Version | Previous Version | Text Only | Print | Product List | Glossary On
Versions: 1 2 3 4 5 6 7 8 9 10 11 12 13 14 15 16 17 18 19 20 21 22 23 24 25 26 27 28 29 30 31 32 33 34 35 36 37 38 39 40 41 42 43 44 45 46 47 48 49 50
000
SXUS55 KTWC 150115
OSOTWC

WEATHER ROUNDUP FOR SOUTHEAST ARIZONA
NATIONAL WEATHER SERVICE TUCSON AZ
615 PM MST THU DEC 14 2017

AZZ504>506-514-150215-
LOCATION       SKY/WX    TMP DP  RH WIND       PRES   REMARKS
TUCSON         PTCLDY    63  16  16 NW9       30.00R
DAVIS-MONTHAN  PTCLDY    60  17  18 NW7       29.98R
CHILDRENS PARK N/A      N/A N/A  14 NW7               PIMA CO DEQ
ALVERNON/22ND  N/A       67 N/A N/A NW5               PIMA CO DEQ
CHERRY/GLENN   N/A       68 N/A N/A NW5               PIMA CO DEQ
TANGERINE      N/A       68 N/A N/A N6                PIMA CO DEQ
CONTL RANCH    N/A       67  16  14 W8                PIMA CO DEQ
GRANT/1ST      N/A       67  16  14 SW8               PIMA CO DEQ
CRAYCROFT/22ND N/A       67  16  14 NW8               PIMA CO DEQ
GOLFLINKS/KOLB N/A       67  16  14 NW6               PIMA CO DEQ
AJO/12TH       N/A       67  16  14 NW7               PIMA CO DEQ
FAIRGROUNDS    N/A       66 N/A N/A NW7               PIMA CO DEQ
SAGUARO        N/A       65  16  15 SW4               *SABINO CYN
SAN CARLOS     N/A       62  20  20 NW6               *SAN CARLOS
GREEN VALLEY   N/A       66  14  13 NW6               PIMA CO DEQ
HORSE CAMP CYN N/A       58  20  23 N14G18            *ARAVAIPA CYN
RINCON MTNS    N/A       35  11  37 NE2               *NR MANNING CAMP
$$

AZZ509>511-150215-
LOCATION       SKY/WX    TMP DP  RH WIND       PRES   REMARKS
SAFFORD        PTCLDY    51  13  21 N8        29.98R
STRAY HORSE    N/A       42   7  23 NE3               *
TRAIL CABIN    N/A       45   9  23 SE3               *N OF GRANVILLE
BLACK HILLS    NOT AVBL
DRY LAKE       N/A       39  17  40 N5                *NATANES MTNS
NOON CREEK     N/A       48  15  27 W7G10             *PINALENO MTNS
COLUMBINE      N/A       34   8  34 CALM              *PINALENO MTNS
GUTHRIE        N/A       50  13  23 NW3               *SW OF GUTHRIE
$$

AZZ502-503-513-150215-
LOCATION       SKY/WX    TMP DP  RH WIND       PRES   REMARKS
NOGALES        PTCLDY    57  16  20 N8        29.99R
SELLS          N/A       66   6   9 NE5G11            *
SASABE         N/A       62  12  14 N5G11             *ALTAR VLY
HOPKINS        N/A       48  14  25 W5G10             *SANTA RITA MTNS
CARR CYN       N/A       52  18  26 CALM              *W OF HEREFORD
$$

AZZ507-508-512-150215-
LOCATION       SKY/WX    TMP DP  RH WIND       PRES   REMARKS
SIERRA VISTA   PTCLDY    53  15  22 W6        30.04R
DOUGLAS        CLOUDY    55  35  47 E12       30.03R
EMPIRE MTNS    NOT AVBL
MULESHOE RANCH N/A       56  12  17 NW7G11            *PRESERVE
HEADQUARTERS   NOT AVBL
$$

.............................NOTES.............................
THIS IS AN AUTOMATED COLLECTIVE WITH MINIMAL QUALITY CONTROL.
PIMA CO DEQ SITES HAVE NONSTANDARD WIND SENSOR HEIGHTS.
PIMA CO DEQ SITES DO NOT REPORT WIND GUSTS.
* INDICATES WIND SENSORS LOCATED AT 20 FEET INSTEAD OF 33 FEET.
..............................KEY..............................
SKY/WX - SKY CONDITION/WEATHER
TMP    - TEMPERATURE IN FAHRENHEIT
DP     - DEWPOINT IN FAHRENHEIT
RH     - RELATIVE HUMIDITY IN PERCENT
WIND   - DIRECTION AND SPEED IN MILES PER HOUR (MPH)
VRB    - VARIABLE WIND DIRECTION
PRES   - MEAN SEA LEVEL PRESSURE IN INCHES OF MERCURY
         F - FALLING PRESSURE   R - RISING PRESSURE
         S - STEADY PRESSURE
VSB    - VISIBILITY IN MILES
HX     - HEAT INDEX IN FAHRENHEIT
WCI    - WIND CHILL INDEX IN FAHRENHEIT
N/A    - NOT AVAILABLE
AFB    - AIR FORCE BASE
         DAVIS-MONTHAN IS DAVIS-MONTHAN AIR FORCE BASE
CYN    - CANYON
MTNS   - MOUNTAINS
NCA    - NATIONAL CONSERVATION AREA
NR     - NEAR
VLY    - VALLEY
CONTL  - CONTINENTAL
PIMA CO DEQ - PIMA COUNTY DEPT OF ENVIRONMENTAL QUALITY



USA.gov is the U.S. government's official web portal to all federal, state and local government web resources and services.